Regional Weather Roundup
Issued by NWS

Home | Current Version | Previous Version | Text Only | Print | Product List | Glossary On
Versions: 1 2 3 4 5 6 7 8 9 10 11 12 13 14 15 16 17 18 19 20 21 22 23 24 25 26 27 28 29 30 31 32 33 34 35 36 37 38 39 40 41 42 43 44 45 46 47 48 49 50
000
ASUS46 KSEW 011410
RWRWA

WASHINGTON REGIONAL WEATHER ROUNDUP
NATIONAL WEATHER SERVICE SEATTLE WA
600 AM PST SUN FEB 01 2015

NOTE:"FAIR" INDICATES FEW OR NO CLOUDS BELOW 12,000 FEET WITH NO
SIGNIFICANT WEATHER AND/OR OBSTRUCTIONS TO VISIBILITY.

WAZ505-507>509-011500-
SEATTLE, TACOMA, EVERETT, AND VICINITY

CITY           SKY/WX    TMP DP  RH WIND       PRES   REMARKS
EVERETT        CLOUDY    44  37  76 SE9       30.03F
BOEING FIELD   CLOUDY    44  40  85 CALM      30.05F FOG
RENTON         CLOUDY    42  41  96 CALM      30.04F FOG
SEATAC AIRPORT CLOUDY    41  40  96 S5        30.05F FOG
JBLM-MCCHORD   CLOUDY    40  40 100 E2        30.03F
PUYALLUP       CLOUDY    39  39 100 CALM      30.03F
BREMERTON      CLOUDY    43  43 100 SW3       30.07F
JBLM-FT LEWIS  CLOUDY    40  40  99 S2        30.03F
TACOMA NARROWS CLOUDY    42  40  92 CALM      30.05F
$$

WAZ001-503-506-510-514-515-011500-
NORTH INTERIOR

CITY           SKY/WX    TMP DP  RH WIND       PRES   REMARKS
BELLINGHAM     LGT RAIN  41  40  96 CALM      30.04F
FRIDAY HARBOR  LGT RAIN  44  40  85 NE6       30.03F
EASTSOUND      LGT RAIN  45  39  81 CALM      30.01F
PORT ANGELES   CLOUDY    44  41  89 MISG      30.01F
NAS WHIDBEY    CLOUDY    46  41  82 E12       30.04F
ARLINGTON      CLOUDY    41  37  87 N3        30.05F
BURLINGTON     CLOUDY    43 N/A N/A CALM      30.06F
$$

WAZ020-022-039-040-504-511-512-011500-
SOUTHWEST INTERIOR

CITY           SKY/WX    TMP DP  RH WIND       PRES   REMARKS
SHELTON        CLOUDY    41  40  96 NW3       30.03S FOG
OLYMPIA        CLOUDY    40  38  93 S3        30.05F
CHEHALIS       CLOUDY    43  39  87 S8G14     30.05F
KELSO          CLOUDY    43  34  70 S9G18     30.11F
VANCOUVER      LGT RAIN  40  35  83 S3        30.13S
SCAPPOOSE, OR  CLOUDY    41  36  82 S6        30.12S
PORTLAND, OR   LGT RAIN  41  36  82 E9        30.12F
$$

WAZ021-516-517-011500-
WASHINGTON COAST

CITY           SKY/WX    TMP DP  RH WIND       PRES   REMARKS
FORKS          LGT RAIN  45  43  93 E3        29.98R
HOQUIAM        CLOUDY    45  40  82 NE8       30.02S
ASTORIA, OR    CLOUDY    45  39  79 CALM      30.03F
$$

WAZ019-023-024-040-518-519-011500-
CASCADE MOUNTAINS AND COLUMBIA GORGE

CITY           SKY/WX    TMP DP  RH WIND       PRES   REMARKS
TROUTDALE, OR  LGT RAIN  40  34  79 E22G31    30.11F
THE DALLES, OR CLOUDY    38  34  85 CALM      30.26F
$$

WAZ026-027-041>044-520-521-011500-
EAST SLOPES

CITY           SKY/WX    TMP DP  RH WIND       PRES   REMARKS
OMAK           LGT SNOW  32  30  92 S7        30.20F VSB 1
WENATCHEE      CLOUDY    36  32  85 CALM      30.21F
ELLENSBURG     CLOUDY    35  31  85 CALM      30.18F
YAKIMA         CLOUDY    36  32  85 CALM      30.21F
$$

WAZ028-034-035-011500-
COLUMBIA BASIN

CITY           SKY/WX    TMP DP  RH WIND       PRES   REMARKS
EPHRATA        CLOUDY    34  30  85 N8        30.20F
MOSES LAKE     CLOUDY    33  30  88 N7        30.21F
PASCO          CLOUDY    36  33  89 W9        30.24F
HERMISTON, OR  CLOUDY    36  32  85 W6        30.24F
$$

WAZ036>038-011500-
NORTHEAST WASHINGTON

CITY           SKY/WX    TMP DP  RH WIND       PRES   REMARKS
SPOKANE GEIGER CLOUDY    29  28  96 NE9       30.15F
SPOKANE FELTS  CLOUDY    31  28  89 E5        30.19F
FAIRCHILD AFB  MIX PCPN  28  28 100 NE7       30.14F
COEURDALENE,ID CLOUDY    30  27  86 E3        30.18F
DEER PARK      CLOUDY    31  27  85 NE5       30.19F
$$

WAZ029>033-011500-
SOUTHEAST WASHINGTON

CITY           SKY/WX    TMP DP  RH WIND       PRES   REMARKS
PULLMAN        CLOUDY    33  27  78 E14       30.15F WCI  23
LEWISTON, ID   CLOUDY    34  30  85 E5        30.20F
WALLA WALLA    CLOUDY    35  32  88 SW5       30.20F
PENDLETON, OR  CLOUDY    33  32  96 W6        30.20R FOG
$$



USA.gov is the U.S. government's official web portal to all federal, state and local government web resources and services.